Weather observations for the past three days for
Terrell, Terrell Municipal Airport
Metric (Imperial)
Date Time (cdt) Wind (kph) Vis. (km) Weather Sky Cond. Temperature (ºC) Relative Humidity Wind Chill (°C) Heat Index (°C) Pressure Precipitation (cm)
Air Dwpt 6 hour altimeter (cm) sea level (mb) 1 hr 3 hr 6 hr
Max. Min.
16 07:53 S 9 16.09 Fair CLR 25 21.7 82% 26 76 1012.4
16 06:53 SE 9 14.48 Fair CLR 22.8 20.6 25.6 22.8 87% 75.92 1011.4
16 05:53 S 9 16.09 Fair CLR 22.8 20.6 87% 75.9 1011.0
16 04:53 S 11 16.09 Fair CLR 23.9 20.6 82% 24 75.87 1010.8
16 03:53 S 9 16.09 Fair CLR 24.4 20.6 79% 25 75.87 1010.7
16 02:53 S 11 16.09 Fair CLR 25 20.6 77% 26 75.9 1010.9
16 01:53 S 9 16.09 Fair CLR 25 20.6 77% 26 75.92 1011.3
16 00:53 Calm 16.09 Fair CLR 25 20.6 32.2 25 77% 26 75.95 1011.5
15 23:53 E 9 16.09 Fair CLR 26.1 20.6 72% 28 75.92 1011.3
15 22:53 SE 7 16.09 Fair CLR 26.7 20 67% 28 75.9 1011.1
15 21:53 SE 9 16.09 Fair CLR 27.2 20 65% 29 75.87 1010.6
15 20:53 SE 9 16.09 Fair CLR 28.3 20 61% 30 75.82 1010.2
15 19:53 SE 15 16.09 Fair CLR 30.6 19.4 51% 32 75.82 1010.1
15 18:53 S 19 16.09 Fair CLR 32.2 18.9 33.3 30.6 45% 34 75.84 1010.4
15 17:53 SE 19 16.09 A Few Clouds FEW060 31.7 18.9 47% 33 75.84 1010.5
15 16:53 SE 20 16.09 Partly Cloudy SCT055 32.8 18.9 44% 34 75.87 1010.9
15 15:53 SE 15 G 37 16.09 A Few Clouds FEW060 32.8 18.9 44% 34 75.92 1011.3
15 14:53 SE 22 G 31 16.09 Partly Cloudy SCT050 33.3 18.9 43% 35 75.95 1011.6
15 13:53 SE 17 G 31 16.09 A Few Clouds FEW050 32.2 20 48% 34 76 1012.3
15 12:53 S 17 6.44 Partly Cloudy with Haze SCT047 SCT055 31.1 20.6 31.7 21.7 54% 34 76.05 1013.0
15 11:53 S 7 14.48 A Few Clouds FEW044 31.1 20.6 54% 34 76.07 1013.4
15 10:53 SW 7 6.44 Fair with Haze CLR 30 21.1 59% 33 76.1 1013.7
15 09:53 SW 9 16.09 Fair CLR 28.3 21.1 65% 31 76.12 1013.9
15 08:53 S 13 16.09 Fair CLR 26.7 19.4 64% 28 76.15 1014.3
15 07:53 Calm 16.09 Fair CLR 24.4 19.4 74% 25 76.17 1014.6
15 06:53 Calm 16.09 Fair CLR 21.7 18.9 24.4 21.1 84% 76.12 1014.2
15 05:53 Calm 16.09 Fair CLR 21.1 18.9 87% 76.1 1013.9
15 04:53 Calm 16.09 Fair CLR 21.7 18.3 81% 76.05 1013.1
15 03:53 Calm 16.09 Fair CLR 22.8 18.9 79% 76.02 1012.8
15 02:53 Calm 16.09 Fair CLR 23.3 18.9 76% 76.05 1013.0
15 01:53 SE 9 16.09 Fair CLR 23.9 19.4 76% 24 76.05 1013.1
15 00:53 Calm 16.09 Fair CLR 24.4 19.4 32.8 24.4 74% 25 76.1 1013.8
14 23:53 SE 6 16.09 Fair CLR 25.6 19.4 69% 27 76.1 1013.7
14 22:53 E 7 16.09 Fair CLR 26.1 18.9 65% 27 76.07 1013.5
14 21:53 E 7 16.09 Fair CLR 26.7 18.3 60% 28 76.05 1013.2
14 20:53 E 6 16.09 Fair CLR 28.9 18.9 55% 30 76.02 1012.7
14 19:53 E 9 16.09 Fair CLR 31.1 18.9 48% 32 76 1012.4
14 18:53 E 15 16.09 Fair CLR 32.8 17.2 34.4 31.1 39% 33 76 1012.3
14 17:53 E 11 16.09 Fair CLR 33.3 17.8 40% 34 76 1012.3
14 16:53 N 9 16.09 Fair CLR 34.4 15 31% 34 76.02 1012.8
14 15:53 Calm 16.09 Fair CLR 32.8 17.2 39% 33 76.05 1013.3
14 14:53 SE 9 16.09 Fair CLR 32.8 17.2 39% 33 76.1 1013.6
14 13:53 Calm 16.09 Fair CLR 32.2 17.8 42% 33 76.12 1014.2
14 12:53 S 7 16.09 Fair CLR 31.7 17.2 31.7 21.7 42% 32 76.17 1014.7
14 11:53 S 15 16.09 Fair CLR 31.1 18.9 48% 32 76.2 1015.0
14 10:53 Vrbl 7 16.09 Fair CLR 29.4 18.3 51% 30 76.23 1015.5
14 09:53 S 11 16.09 Fair CLR 28.3 18.3 55% 29 76.25 1015.8
14 08:53 S 7 16.09 Fair CLR 26.7 18.9 62% 28 76.23 1015.5
14 07:53 SE 11 16.09 Fair CLR 23.3 18.3 74% 76.17 1014.9
14 06:53 E 6 16.09 Fair CLR 21.7 17.8 23.3 20 79% 76.17 1014.8
14 05:53 Calm 16.09 Fair CLR 20 17.8 87% 76.1 1014.0
14 04:53 NE 6 16.09 Fair CLR 20.6 17.8 84% 76.15 1014.4
14 03:53 N 7 16.09 Fair CLR 21.1 18.3 84% 76.1 1013.8
14 02:53 Calm 16.09 Fair CLR 22.2 17.8 76% 76.07 1013.5
14 01:53 Calm 16.09 Fair CLR 22.8 18.9 79% 76.1 1013.7
14 00:53 Calm 16.09 Fair CLR 23.3 18.9 32.2 23.3 76% 76.1 1013.8
13 23:53 Calm 16.09 Fair CLR 25 19.4 71% 26 76.12 1014.0
13 22:53 Calm 16.09 Fair CLR 25.6 18.9 67% 27 76.05 1013.2
13 21:53 SE 7 16.09 Fair CLR 26.7 20.6 69% 28 75.97 1012.3
13 20:53 E 7 16.09 Fair CLR 28.3 21.1 65% 31 75.95 1012.0
13 19:53 E 7 16.09 Fair CLR 31.1 20 52% 33 75.97 1012.0
13 18:53 Calm 16.09 Fair CLR 32.2 18.9 33.3 30 45% 34 75.97 1012.2
13 17:53 Vrbl 9 16.09 Fair CLR 32.8 19.4 45% 35 76 1012.5
13 16:53 Calm 16.09 Fair CLR 32.2 19.4 47% 34 76.02 1012.9
13 15:53 Calm 16.09 Fair CLR 32.2 18.9 45% 34 76.07 1013.4
13 14:53 Calm 16.09 Fair CLR 32.2 19.4 47% 34 76.12 1014.0
13 13:53 S 6 16.09 Mostly Cloudy BKN045 31.1 20 52% 33 76.15 1014.6
13 12:53 Vrbl 7 16.09 Partly Cloudy SCT043 31.1 20.6 31.1 21.1 54% 34 76.2 1015.1
13 11:53 S 9 16.09 Partly Cloudy SCT039 30 20 55% 32 76.2 1015.2
13 10:53 S 9 16.09 Partly Cloudy SCT036 28.9 19.4 57% 30 76.2 1015.2
13 09:53 S 11 16.09 Partly Cloudy SCT034 27.8 18.9 58% 29 76.2 1015.2
13 08:53 S 15 16.09 Fair CLR 25.6 18.9 67% 27 76.17 1014.8
Date Time (cdt) Wind (kph) Vis. (km) Weather Sky Cond. Air Dwpt Max. Min. Relative Humidity Wind Chill (°C) Heat Index (°C) altimeter (cm) sea level (mb) 1 hr 3 hr 6 hr
6 hour
Temperature (ºC) Pressure Precipitation (cm)